Russell, KS

1:10 PM CDT on March 26, 2017 (GMT -0500)
Russell Municipal

Weather History for KRSL - November, 2013

Change the Weather History Date:

Wednesday, November 6, 2013

  Actual Average Record
Temperature  
Mean Temperature 42 °F -  
Max Temperature 54 °F 56 °F 86 °F (1980)
Min Temperature 30 °F 33 °F 12 °F (1959)
Degree Days  
Heating Degree Days 23    
Moisture  
Dew Point 30 °F    
Average Humidity 73    
Maximum Humidity 93    
Minimum Humidity 34    
Precipitation  
Precipitation 0.00 in - - ()
Sea Level Pressure  
Sea Level Pressure 30.27 in    
Wind  
Wind Speed 11 mph (WNW)    
Max Wind Speed 18 mph    
Max Gust Speed 24 mph    
Visibility 9 miles    
Events      
Averages and records for this station are not official NWS values.
T = Trace of Precipitation, MM = Missing Value Source: NWS Daily Summary

Daily Weather History Graph

Daily Weather History Graph

Search for Another Location

Airport or City:

Trip Planner

Search our weather history database for the weather conditions in past years. The results will help you decide how hot, cold, wet, or windy it might be!

Date:

Astronomy

Nov. 06, 2013 Rise Set
Actual Time 7:08 AM CST 5:29 PM CST
Civil Twilight 6:40 AM CST 5:57 PM CST
Nautical Twilight 6:08 AM CST 6:28 PM CST
Astronomical Twilight 5:37 AM CST 6:59 PM CST
Moon 10:23 AM CST (11/6) 8:35 PM CST (11/6)
Length of Visible Light 11h 16m
Length of Day
10h 20m
Waxing Crescent, 14% of the Moon is Illuminated
Nov 6
Waxing Crescent
Nov 9
First Quarter
Nov 17
Full
Nov 25
Last Quarter
Dec 2
New

Hourly Weather History & Observations

Time (CST) Temp. Windchill Dew Point Humidity Pressure Visibility Wind Dir Wind Speed Gust Speed Precip Events Conditions
12:16 AM 37.4 °F 27.5 °F 32.0 °F 81% 30.15 in 10.0 mi NNW 18.4 mph - N/A   Overcast
12:28 AM 37.4 °F 28.5 °F 30.2 °F 75% 30.15 in 10.0 mi North 15.0 mph 23.0 mph N/A   Overcast
12:53 AM 37.0 °F 28.5 °F 32.0 °F 82% 30.17 in 10.0 mi North 13.8 mph 24.2 mph N/A   Overcast
1:53 AM 34.0 °F 25.0 °F 30.9 °F 89% 30.17 in 10.0 mi NNW 12.7 mph - N/A   Partly Cloudy
2:53 AM 32.0 °F 23.6 °F 28.9 °F 88% 30.20 in 10.0 mi NW 10.4 mph - N/A   Clear
3:53 AM 30.9 °F 23.5 °F 28.9 °F 92% 30.21 in 10.0 mi NW 8.1 mph - N/A   Clear
4:53 AM 30.9 °F 22.2 °F 28.0 °F 89% 30.24 in 10.0 mi NW 10.4 mph - N/A   Clear
5:53 AM 30.0 °F 20.0 °F 28.0 °F 92% 30.26 in 10.0 mi NW 12.7 mph - N/A   Clear
6:53 AM 30.0 °F 20.0 °F 27.0 °F 88% 30.27 in 10.0 mi NW 12.7 mph - N/A   Scattered Clouds
7:01 AM 30.2 °F 19.3 °F 28.4 °F 93% 30.22 in 8.0 mi NW 15.0 mph - N/A   Mostly Cloudy
7:53 AM 30.9 °F 20.7 °F 28.9 °F 92% 30.30 in 10.0 mi NNW 13.8 mph - N/A   Overcast
8:53 AM 32.0 °F 24.2 °F 30.0 °F 92% 30.33 in 6.0 mi NW 9.2 mph - N/A   Overcast
9:53 AM 35.1 °F 28.6 °F 30.9 °F 85% 30.34 in 8.0 mi NW 8.1 mph - N/A   Overcast
10:34 AM 35.6 °F 29.2 °F 30.2 °F 81% 30.28 in 6.0 mi WNW 8.1 mph - N/A   Haze
10:53 AM 37.9 °F 33.5 °F 32.0 °F 79% 30.32 in 8.0 mi NW 5.8 mph - N/A   Mostly Cloudy
11:03 AM 39.2 °F 35.0 °F 32.0 °F 75% 30.28 in 10.0 mi NW 5.8 mph - N/A   Scattered Clouds
11:53 AM 43.0 °F 38.2 °F 32.0 °F 65% 30.31 in 7.0 mi West 8.1 mph - N/A   Clear
12:53 PM 46.9 °F - 32.0 °F 56% 30.27 in 7.0 mi WNW 5.8 mph - N/A   Clear
1:53 PM 48.9 °F - 28.9 °F 46% 30.26 in 9.0 mi WSW 5.8 mph - N/A   Clear
2:53 PM 52.0 °F - 28.9 °F 41% 30.26 in 10.0 mi West 10.4 mph - N/A   Clear
3:53 PM 54.0 °F - 26.1 °F 34% 30.24 in 10.0 mi WSW 11.5 mph - N/A   Clear
4:53 PM 52.0 °F - 28.9 °F 41% 30.25 in 5.0 mi West 8.1 mph - N/A   Haze
5:53 PM 46.0 °F 43.1 °F 30.9 °F 56% 30.27 in 10.0 mi West 5.8 mph - N/A   Clear
6:53 PM 42.1 °F 39.2 °F 30.9 °F 65% 30.29 in 7.0 mi WNW 4.6 mph - N/A   Clear
7:53 PM 42.1 °F 38.4 °F 28.9 °F 60% 30.31 in 10.0 mi West 5.8 mph - N/A   Clear
8:53 PM 37.9 °F 33.5 °F 28.9 °F 70% 30.32 in 10.0 mi West 5.8 mph - N/A   Clear
9:53 PM 39.9 °F 35.8 °F 28.9 °F 65% 30.35 in 10.0 mi West 5.8 mph - N/A   Clear
10:53 PM 37.0 °F 34.5 °F 28.0 °F 70% 30.36 in 10.0 mi WSW 3.5 mph - N/A   Clear
11:53 PM 34.0 °F 28.8 °F 28.9 °F 82% 30.36 in 10.0 mi West 5.8 mph - N/A   Clear